�N����,����,�~����,�C��,���x,�C��,����,���ϕ���,�ő�u�ԕ���,�ő厞����,���˗�,�I�_���x,�n�����x,�ő啗���N��,DTYPE
"21/09/11","00:10",0.0,22.9,86.0,1008.1,311.7,1.2,2.5,343.9,0.00,20.5,25.2,"00:07:04",1
"21/09/11","00:20",0.0,22.9,86.0,1008.1,319.3,1.3,2.5,341.4,0.00,20.5,25.2,"00:13:04",1
"21/09/11","00:30",0.0,22.8,86.1,1008.3,312.2,1.1,2.1,333.0,0.00,20.4,25.0,"00:28:24",1
"21/09/11","00:40",0.0,22.8,86.2,1008.3,299.1,1.0,1.7,330.3,0.00,20.4,24.9,"00:38:48",1
"21/09/11","00:50",0.0,22.7,86.3,1008.1,294.8,1.0,1.4,314.7,0.00,20.3,24.7,"00:48:56",1
"21/09/11","01:00",0.0,22.8,86.2,1008.1,307.0,1.2,2.0,319.4,0.00,20.4,24.9,"00:57:52",1
"21/09/11","01:10",0.0,22.9,85.9,1008.1,309.3,1.7,3.1,332.1,0.00,20.5,24.8,"01:08:40",1
"21/09/11","01:20",0.0,23.1,85.7,1008.6,339.2,1.1,2.6,335.8,0.00,20.6,25.0,"01:10:16",1
"21/09/11","01:30",0.0,23.0,85.6,1008.1,346.9,0.8,1.2,2.9,0.00,20.5,24.9,"01:22:32",1
"21/09/11","01:40",0.0,22.9,85.8,1008.8,327.1,1.1,1.8,338.8,0.00,20.4,25.0,"01:32:24",1
"21/09/11","01:50",0.0,22.9,85.7,1008.1,310.0,1.5,2.8,329.1,0.00,20.4,24.9,"01:41:28",1
"21/09/11","02:00",0.0,22.9,85.6,1008.1,295.7,0.8,1.7,315.9,0.00,20.4,24.9,"01:54:24",1
"21/09/11","02:10",0.0,22.8,85.6,1008.1,307.2,1.0,1.6,323.5,0.00,20.3,24.9,"02:07:12",1
"21/09/11","02:20",0.0,22.7,85.7,1007.8,291.0,0.8,1.4,326.6,0.00,20.2,24.8,"02:10:40",1
"21/09/11","02:30",0.0,22.7,85.8,1008.1,318.8,1.3,2.2,336.7,0.00,20.2,24.8,"02:23:44",1
"21/09/11","02:40",0.0,22.6,86.0,1007.8,291.0,0.8,1.7,328.7,0.00,20.2,24.9,"02:30:16",1
"21/09/11","02:50",0.0,22.6,86.1,1008.1,293.3,0.8,1.3,311.2,0.00,20.2,24.8,"02:41:52",1
"21/09/11","03:00",0.0,22.6,86.4,1008.6,324.2,1.1,1.6,317.2,0.00,20.3,24.7,"02:55:44",1
"21/09/11","03:10",0.0,22.3,86.7,1008.3,299.4,0.8,1.2,317.2,0.00,20.0,24.7,"03:03:12",1
"21/09/11","03:20",0.0,22.3,87.1,1008.1,291.7,0.8,1.8,321.5,0.00,20.1,24.9,"03:19:04",1
"21/09/11","03:30",0.0,22.3,87.4,1008.3,292.0,1.0,1.4,300.0,0.00,20.1,24.7,"03:20:24",1
"21/09/11","03:40",0.0,22.3,87.6,1008.1,294.5,1.0,1.7,312.0,0.00,20.2,24.7,"03:36:40",1
"21/09/11","03:50",0.0,22.3,87.7,1008.1,325.1,1.3,2.6,331.1,0.00,20.2,24.7,"03:48:24",1
"21/09/11","04:00",0.0,22.4,87.6,1008.1,323.8,1.5,2.6,333.2,0.00,20.3,24.7,"03:50:48",1
"21/09/11","04:10",0.0,22.4,87.5,1007.8,320.8,1.6,2.2,318.2,0.00,20.3,24.5,"04:00:24",1
"21/09/11","04:20",0.0,22.7,87.4,1007.8,317.9,1.2,2.6,340.0,0.00,20.5,24.8,"04:16:00",1
"21/09/11","04:30",0.0,22.7,87.2,1008.6,336.1,1.1,1.8,348.2,0.00,20.5,24.6,"04:20:24",1
"21/09/11","04:40",0.0,22.6,87.3,1008.3,328.8,1.1,1.7,327.0,0.00,20.4,24.6,"04:31:12",1
"21/09/11","04:50",0.0,22.6,87.4,1008.3,303.0,1.1,1.7,328.8,0.00,20.4,24.5,"04:41:04",1
"21/09/11","05:00",0.0,22.6,87.5,1008.3,275.0,0.8,1.4,256.3,0.00,20.5,24.6,"04:53:44",1
"21/09/11","05:10",0.0,22.6,87.5,1008.8,296.0,1.0,1.3,264.1,0.00,20.5,24.4,"05:01:28",1
"21/09/11","05:20",0.0,22.6,87.6,1008.6,318.9,1.2,1.9,343.4,0.00,20.5,24.6,"05:18:40",1
"21/09/11","05:30",0.0,22.4,87.9,1008.8,320.2,1.2,1.7,336.5,0.00,20.3,24.6,"05:20:08",1
"21/09/11","05:40",0.0,22.3,88.2,1008.6,290.9,0.8,1.2,317.6,0.00,20.3,24.2,"05:31:20",1
"21/09/11","05:50",0.0,22.2,88.4,1008.3,288.6,0.8,1.4,303.6,0.00,20.2,24.6,"05:46:56",1
"21/09/11","06:00",0.0,22.2,88.6,1008.8,297.9,1.0,1.3,306.7,0.00,20.3,24.6,"05:50:48",1
"21/09/11","06:10",0.0,22.2,88.9,1008.3,294.3,1.0,1.7,327.4,0.00,20.3,24.3,"06:00:02",1
"21/09/11","06:20",0.0,22.1,89.1,1008.8,299.3,1.0,1.7,312.3,0.00,20.3,24.3,"06:12:00",1
"21/09/11","06:30",0.0,22.1,89.3,1008.6,286.1,0.8,1.2,315.7,0.00,20.3,24.4,"06:28:48",1
"21/09/11","06:40",0.0,22.2,89.4,1009.0,291.1,0.8,1.6,323.5,0.00,20.4,24.4,"06:36:24",1
"21/09/11","06:50",0.0,22.1,89.6,1009.3,291.1,0.8,1.2,323.3,0.00,20.4,24.6,"06:49:04",1
"21/09/11","07:00",0.4,22.1,89.8,1009.3,307.5,1.0,1.7,336.9,0.00,20.4,24.4,"06:55:44",1
"21/09/11","07:10",0.4,22.0,90.0,1009.5,304.6,0.6,1.3,318.6,0.00,20.3,24.3,"07:01:36",1
"21/09/11","07:20",0.4,22.1,90.2,1009.5,331.1,0.7,1.1,338.6,0.00,20.5,24.4,"07:16:24",1
"21/09/11","07:30",0.0,22.1,90.4,1009.3,310.1,0.3,1.0,341.1,0.00,20.5,24.4,"07:28:56",1
"21/09/11","07:40",0.2,22.2,90.7,1009.5,331.7,0.7,1.4,345.8,0.01,20.6,24.4,"07:31:12",1
"21/09/11","07:50",0.0,22.2,90.8,1009.3,312.2,0.3,0.6,347.9,0.01,20.7,24.4,"07:42:40",1
"21/09/11","08:00",0.0,22.2,91.0,1009.3,313.7,0.6,1.1,322.2,0.00,20.7,24.2,"07:55:28",1
"21/09/11","08:10",0.0,22.4,91.2,1009.3,345.7,0.2,0.9,358.3,0.02,20.9,24.4,"08:09:20",1
"21/09/11","08:20",0.0,22.4,91.3,1009.3,336.0,0.2,0.9,287.7,0.00,21.0,24.4,"08:11:20",1
"21/09/11","08:30",0.2,22.4,91.4,1009.3,325.2,0.3,1.1,339.3,0.00,21.0,24.4,"08:26:24",1
"21/09/11","08:40",0.4,22.4,91.7,1009.3,305.7,0.6,1.1,331.1,0.00,21.0,24.4,"08:37:52",1
"21/09/11","08:50",0.2,22.4,91.9,1009.3,330.6,0.8,2.0,342.4,0.00,21.1,24.4,"08:45:28",1
"21/09/11","09:00",0.0,22.5,92.1,1009.0,291.6,0.3,0.9,337.2,0.03,21.2,24.4,"08:50:56",1
"21/09/11","09:10",0.0,22.5,92.2,1009.0,293.2,0.2,0.6,334.9,0.04,21.2,24.5,"09:00:24",1
"21/09/11","09:20",0.0,22.7,92.3,1009.0,273.1,0.3,0.9,288.9,0.04,21.4,24.2,"09:10:02",1
"21/09/11","09:30",0.0,23.0,92.4,1009.0,225.9,0.2,0.5,271.4,0.08,21.7,24.3,"09:20:08",1
"21/09/11","09:40",0.0,23.1,92.4,1008.8,285.8,0.3,0.8,313.7,0.05,21.8,24.2,"09:35:20",1
"21/09/11","09:50",0.0,23.0,92.6,1008.8,318.5,0.8,1.4,343.4,0.06,21.8,24.4,"09:44:00",1
"21/09/11","10:00",0.0,23.3,92.6,1008.8,297.7,0.6,1.2,342.5,0.07,22.1,24.2,"09:51:36",1
"21/09/11","10:10",0.0,23.6,92.6,1009.0,311.1,0.8,1.4,332.3,0.12,22.4,24.2,"10:05:20",1
"21/09/11","10:20",0.0,23.6,92.3,1009.0,240.2,0.7,1.2,242.2,0.16,22.3,24.3,"10:11:44",1
"21/09/11","10:30",0.0,24.3,92.4,1009.0,57.4,0.3,1.1,123.4,0.21,23.0,24.4,"10:26:24",1
"21/09/11","10:40",0.0,24.7,92.0,1008.8,187.9,0.3,0.9,243.6,0.18,23.4,24.3,"10:34:40",1
"21/09/11","10:50",0.0,25.8,91.4,1008.8,75.8,0.5,2.2,133.8,0.45,24.3,24.5,"10:49:44",1
"21/09/11","11:00",0.0,25.9,90.8,1008.1,154.7,0.8,1.9,92.0,0.47,24.3,24.4,"10:53:20",1
"21/09/11","11:10",0.0,25.8,88.4,1007.8,169.3,0.6,1.9,124.4,0.35,23.8,24.4,"11:06:00",1
"21/09/11","11:20",0.0,26.2,88.0,1008.3,213.9,0.8,2.8,230.4,0.40,24.1,24.4,"11:16:24",1
"21/09/11","11:30",0.0,26.3,85.9,1008.1,148.2,0.7,1.6,2.9,0.22,23.8,24.4,"11:20:56",1
"21/09/11","11:40",0.0,25.9,83.8,1007.8,174.8,1.1,2.4,221.3,0.15,23.0,24.7,"11:32:00",1
"21/09/11","11:50",0.0,26.8,82.6,1007.4,59.4,0.5,1.1,126.5,0.32,23.6,24.5,"11:42:56",1
"21/09/11","12:00",0.0,27.5,80.2,1007.4,349.2,1.0,1.9,326.8,0.40,23.8,24.6,"11:54:16",1
"21/09/11","12:10",0.0,28.5,76.4,1007.4,68.2,0.8,1.8,54.9,0.52,24.0,24.7,"12:08:32",1
"21/09/11","12:20",0.0,28.8,73.1,1007.6,57.2,1.0,3.1,109.6,0.44,23.5,24.7,"12:19:52",1
"21/09/11","12:30",0.0,28.2,72.9,1007.4,214.6,2.2,4.7,210.7,0.51,22.9,24.7,"12:20:40",1
"21/09/11","12:40",0.0,29.0,71.4,1007.6,211.7,1.2,3.5,237.3,0.57,23.3,24.7,"12:37:36",1
"21/09/11","12:50",0.0,28.3,70.8,1007.6,208.8,1.2,2.6,172.4,0.25,22.5,24.9,"12:47:20",1
"21/09/11","13:00",0.0,28.3,73.6,1007.1,201.9,1.8,4.0,236.5,0.33,23.2,25.0,"12:56:00",1
"21/09/11","13:10",0.0,28.4,72.3,1006.9,198.1,1.8,3.3,221.8,0.37,23.0,25.0,"13:03:36",1
"21/09/11","13:20",0.0,28.2,72.0,1006.7,187.0,1.5,3.5,198.2,0.22,22.7,25.2,"13:12:40",1
"21/09/11","13:30",0.0,28.3,72.3,1006.9,172.5,1.1,2.5,223.2,0.23,22.9,25.1,"13:20:32",1
"21/09/11","13:40",0.0,28.7,71.8,1006.4,261.7,1.0,3.2,199.2,0.27,23.1,25.2,"13:30:16",1
"21/09/11","13:50",0.0,29.0,69.9,1006.9,212.2,0.7,1.8,215.2,0.25,23.0,25.3,"13:49:04",1
"21/09/11","14:00",0.0,28.8,70.1,1007.1,217.8,0.5,1.7,253.0,0.13,22.8,25.3,"13:55:20",1
"21/09/11","14:10",0.0,28.4,71.4,1006.9,295.0,0.7,2.0,306.8,0.09,22.8,25.4,"14:07:44",1
"21/09/11","14:20",0.0,28.6,71.8,1006.4,300.4,0.5,1.2,316.3,0.17,23.0,25.4,"14:10:32",1
"21/09/11","14:30",0.0,28.2,72.1,1006.4,204.1,1.0,2.2,200.9,0.10,22.7,25.1,"14:24:24",1
"21/09/11","14:40",0.0,27.8,72.6,1006.2,255.3,0.7,1.7,253.2,0.05,22.5,25.5,"14:30:16",1
"21/09/11","14:50",0.0,27.8,73.5,1005.5,273.8,0.5,1.0,305.7,0.05,22.7,25.4,"14:42:16",1
"21/09/11","15:00",0.0,28.3,73.4,1005.5,316.7,0.6,1.6,333.6,0.16,23.1,25.6,"14:59:36",1
"21/09/11","15:10",0.0,28.8,72.2,1006.0,4.9,0.7,2.0,353.0,0.23,23.3,25.4,"15:07:44",1
"21/09/11","15:20",0.0,29.1,69.6,1005.5,316.0,0.7,1.9,352.8,0.21,23.0,25.5,"15:11:04",1
"21/09/11","15:30",0.0,29.1,67.5,1006.0,256.2,0.8,1.4,231.8,0.20,22.5,25.4,"15:24:16",1
"21/09/11","15:40",0.2,29.3,67.0,1006.0,276.3,0.7,1.7,324.4,0.20,22.6,25.4,"15:38:24",1
"21/09/11","15:50",0.0,29.5,66.4,1006.7,307.4,1.0,2.0,250.3,0.22,22.6,25.6,"15:41:04",1
"21/09/11","16:00",0.0,29.3,65.4,1006.0,280.2,0.8,2.1,195.4,0.20,22.2,25.7,"15:59:20",1
"21/09/11","16:10",0.0,29.4,66.0,1006.0,323.3,0.8,1.9,352.2,0.16,22.4,25.6,"16:06:16",1
"21/09/11","16:20",0.0,29.3,65.9,1006.0,338.7,1.0,2.4,353.2,0.15,22.3,25.7,"16:11:04",1
"21/09/11","16:30",0.0,29.2,65.5,1006.0,340.3,1.0,2.0,356.6,0.10,22.1,25.5,"16:29:36",1
"21/09/11","16:40",0.0,28.7,66.4,1005.2,305.6,0.6,1.4,337.1,0.07,21.9,25.7,"16:33:36",1
"21/09/11","16:50",0.0,28.9,67.3,1005.2,311.7,0.6,1.2,327.4,0.11,22.3,25.7,"16:44:48",1
"21/09/11","17:00",0.0,29.0,67.6,1005.2,318.9,0.8,2.2,349.9,0.09,22.4,26.0,"16:53:44",1
"21/09/11","17:10",0.0,28.7,68.8,1005.0,333.4,0.8,1.7,352.0,0.05,22.4,25.6,"17:02:32",1
"21/09/11","17:20",0.0,28.2,70.6,1004.8,339.9,1.1,2.1,340.4,0.03,22.4,25.7,"17:19:28",1
"21/09/11","17:30",0.0,27.8,73.7,1004.3,338.5,1.2,1.8,327.3,0.02,22.7,25.7,"17:23:04",1
"21/09/11","17:40",0.0,27.5,76.2,1005.0,340.0,1.1,2.0,327.5,0.02,23.0,25.9,"17:37:52",1
"21/09/11","17:50",0.0,27.1,78.2,1005.0,334.2,1.1,2.4,331.1,0.01,23.0,25.6,"17:40:56",1
"21/09/11","18:00",0.0,26.7,79.4,1005.0,328.8,0.7,2.0,341.0,0.00,22.9,25.7,"17:50:08",1
"21/09/11","18:10",0.0,26.2,80.7,1005.5,321.3,1.1,1.4,336.2,0.00,22.7,25.9,"18:02:56",1
"21/09/11","18:20",0.0,25.8,81.9,1005.5,325.4,1.0,1.4,324.7,0.00,22.5,25.9,"18:16:56",1
"21/09/11","18:30",0.0,25.6,82.8,1006.0,289.0,0.7,1.3,310.9,0.00,22.5,25.8,"18:21:04",1
"21/09/11","18:40",0.0,25.6,83.5,1005.7,281.6,0.7,1.3,247.4,0.00,22.6,25.7,"18:37:12",1
"21/09/11","18:50",0.0,25.4,84.1,1006.0,345.7,1.0,1.9,330.8,0.00,22.6,25.7,"18:48:32",1
"21/09/11","19:00",0.0,25.0,84.7,1006.0,316.4,0.8,1.3,316.8,0.00,22.3,25.7,"18:52:08",1
"21/09/11","19:10",0.0,24.8,85.2,1006.0,284.5,0.5,1.3,313.1,0.00,22.2,25.8,"19:08:08",1
"21/09/11","19:20",0.0,24.5,85.8,1006.4,312.8,0.6,1.2,341.5,0.00,22.0,25.7,"19:12:48",1
"21/09/11","19:30",0.0,24.5,86.4,1006.4,323.1,1.1,2.1,341.4,0.00,22.1,25.7,"19:23:36",1
"21/09/11","19:40",0.0,24.4,86.7,1006.7,282.1,0.7,1.4,327.4,0.00,22.1,25.7,"19:38:24",1
"21/09/11","19:50",0.0,24.2,87.1,1006.7,323.5,1.0,1.7,338.8,0.00,22.0,25.5,"19:44:40",1
"21/09/11","20:00",0.0,24.2,87.4,1007.4,295.0,0.8,1.3,298.9,0.00,22.0,25.8,"19:59:12",1
"21/09/11","20:10",0.0,24.1,87.6,1007.1,309.3,0.7,1.4,343.3,0.00,22.0,25.6,"20:02:00",1
"21/09/11","20:20",0.0,24.1,87.9,1007.1,269.2,0.7,1.3,325.7,0.00,22.0,25.7,"20:10:24",1
"21/09/11","20:30",0.0,23.9,88.1,1007.4,316.4,0.7,1.4,333.3,0.00,21.8,25.6,"20:20:02",1
"21/09/11","20:40",0.0,23.8,88.3,1007.1,324.5,0.8,1.9,342.9,0.00,21.8,25.6,"20:30:40",1
"21/09/11","20:50",0.0,23.8,88.5,1007.6,285.0,0.7,1.1,275.1,0.00,21.8,25.5,"20:44:24",1
"21/09/11","21:00",0.0,23.8,88.7,1007.4,307.2,0.8,1.3,319.3,0.00,21.9,25.6,"20:57:36",1
"21/09/11","21:10",0.0,23.8,88.8,1007.8,293.7,0.7,1.2,308.2,0.00,21.9,25.2,"21:01:44",1
"21/09/11","21:20",0.0,23.9,88.9,1008.1,299.2,0.7,1.4,258.8,0.00,22.0,25.6,"21:10:24",1
"21/09/11","21:30",0.0,23.9,89.0,1007.4,302.8,0.5,1.1,334.7,0.00,22.0,25.5,"21:25:20",1
"21/09/11","21:40",0.0,23.8,89.1,1007.6,263.5,0.8,2.0,253.9,0.00,21.9,25.4,"21:37:36",1
"21/09/11","21:50",0.0,23.9,89.1,1007.6,329.4,0.8,1.8,333.2,0.00,22.0,25.5,"21:46:08",1
"21/09/11","22:00",0.0,23.8,89.1,1007.4,336.7,1.1,1.8,25.2,0.00,21.9,25.4,"21:50:56",1
"21/09/11","22:10",0.0,23.6,89.4,1007.6,305.5,1.0,2.0,348.7,0.00,21.8,25.4,"22:00:02",1
"21/09/11","22:20",0.0,23.5,89.5,1007.6,314.3,1.1,2.4,331.9,0.00,21.7,25.3,"22:12:40",1
"21/09/11","22:30",0.0,23.4,89.6,1007.1,285.3,0.7,1.2,268.4,0.00,21.6,25.4,"22:22:40",1
"21/09/11","22:40",0.0,23.3,89.7,1007.4,293.2,1.0,2.0,324.4,0.00,21.6,25.3,"22:30:02",1
"21/09/11","22:50",0.0,23.1,89.9,1006.9,312.0,0.7,1.7,336.6,0.00,21.4,25.4,"22:41:28",1
"21/09/11","23:00",0.0,23.1,90.0,1007.1,319.9,1.2,2.1,326.0,0.00,21.4,25.1,"22:52:40",1
"21/09/11","23:10",0.0,22.9,90.1,1007.1,325.9,1.0,1.6,332.1,0.00,21.2,25.2,"23:01:52",1
"21/09/11","23:20",0.0,22.8,90.3,1007.1,288.1,1.0,1.4,321.7,0.00,21.2,25.3,"23:13:12",1
"21/09/11","23:30",0.0,22.8,90.5,1007.1,305.0,1.0,1.7,333.0,0.00,21.2,25.3,"23:25:28",1
"21/09/11","23:40",0.0,22.8,90.6,1007.1,333.2,0.8,1.6,332.7,0.00,21.2,25.2,"23:30:16",1
"21/09/11","23:50",0.0,22.7,90.7,1006.7,320.2,1.0,1.3,322.0,0.00,21.1,25.1,"23:42:40",1
"21/09/11","24:00",0.0,22.5,90.9,1006.7,297.7,1.1,1.4,309.7,0.00,21.0,25.2,"23:50:32",1
